Regional Weather Roundup
Issued by NWS State College, PA

Home | Current Version | Previous Version | Text Only | Print | Product List | Glossary On
Versions: 1 2 3 4 5 6 7 8 9 10 11 12 13 14 15 16 17 18 19 20 21 22 23 24 25 26 27 28 29 30 31 32 33 34 35 36 37 38 39 40 41 42 43 44 45 46 47 48 49 50
812
ASUS41 KCTP 291103
RWRCTP

REGIONAL WEATHER ROUNDUP
NATIONAL WEATHER SERVICE STATE COLLEGE PA
700 AM EDT FRI JUL 29 2016

Note: "fair" indicates few or no clouds below 12,000 feet with no
significant weather and/or obstructions to visibility.

* = STATION THAT DOES NOT REPORT PRECIPITATION /E.G. RAIN...SNOW...ETC/
    THUNDER OR FOG.

PAZ002>004-007>009-013>016-020>023-029>032-291200-
WESTERN PENNSYLVANIA

CITY           SKY/WX    TMP DP  RH WIND       PRES   REMARKS
ERIE           PTCLDY    68  65  90 S6        29.93R
MEADVILLE      CLOUDY    62  61  96 CALM      29.97R FOG
FRANKLIN*      CLOUDY    64  61  88 CALM      29.97S VSB<1/4
NEW CASTLE     FOG       66  65  96 CALM      29.96R VSB<1/4
BEAVER COUNTY  FOG       64  63  94 CALM      29.95  VSB 1/8
BUTLER*        CLOUDY    64  63  94 CALM      29.98S VSB 1/4
PITTSBURGH INT FOG       65  63  93 W6        29.95S VSB<1/4
PITTSBURGH     FOG       67  65  93 CALM      29.95R VSB 3/4
INDIANA*       FOG       68  68 100 CALM      29.99R VSB 1/4
LATROBE        CLOUDY    68  68 100 CALM      29.96S FOG
WASHINGTON CO* CLOUDY    68  66  94 CALM      29.96S
$$

PAZ004>006-010>012-017>019-024>028-033>037-041-042-045-046-049>053-291200-
CENTRAL PENNSYLVANIA

CITY           SKY/WX    TMP DP  RH WIND       PRES   REMARKS
BRADFORD       FOG       65  64  97 CALM      29.97R VSB<1/4
DUBOIS         FOG       65  63  93 CALM      29.96R VSB<1/4
CLEARFIELD     FOG       65  63  93 CALM      29.95R VSB<1/4
JOHNSTOWN      FOG       65  62  90 NW6       29.98R VSB 1/4
ALTOONA        CLEAR     65  65 100 CALM      29.95R FOG
STATE COLLEGE  FOG       64  64 100 CALM      29.94R VSB 1/8
WILLIAMSPORT   PTCLDY    70  66  87 W9        29.87R
SELINSGROVE    FOG       68  68 100 CALM      29.89R VSB 1/2
FT INDIANTOWN  NOT AVBL
CAPITAL CITY   PTCLDY    73  69  87 SW6       29.87R
HARRISBURG     PTCLDY    73  72  96 NW5       29.86R
YORK           CLOUDY    71  69  93 CALM      29.88R FOG
$$

PAZ038>040-043-044-047-048-054-055-060>062-067>071-291200-
EASTERN PENNSYLVANIA

CITY           SKY/WX    TMP DP  RH WIND       PRES   REMARKS
SCRANTON       CLOUDY    71  69  93 CALM      29.88R FOG
MOUNT POCONO   CLOUDY    67  65  93 N3        29.91R
ALLENTOWN      CLOUDY    72  70  94 CALM      29.86R FOG
QUAKERTOWN*    CLOUDY    68  68 100 CALM      29.87R
READING        CLOUDY    71  69  93 N3        29.85R FOG
LANCASTER      CLOUDY    70  69  97 NW5       29.87R FOG
COATESVILLE    PTSUNNY   70  68  94 N3        29.88R
POTTSTOWN      CLOUDY    70  69  97 N5        29.87R FOG
BLUE BELL      CLOUDY    70  70 100 CALM      29.83R
DOYLESTOWN     LGT RAIN  69  69 100 N7        29.84R
WILLOW GROVE   NOT AVBL
NORTH PHILA    LGT RAIN  73  72  96 NE8       29.84R FOG
PHILADELPHIA   RAIN      73  71  93 NE12      29.82R FOG
$$




USA.gov is the U.S. government's official web portal to all federal, state and local government web resources and services.